• In Uzbekistan
  • List of Countries
  • For 7 days
  • Water Temperature
  • Satellite Maps
  • Weather Map
  • Weather Widgets
  • user-avatar
    Login

    Hourly Weather Shenyang

    Today, 18 November, Sunday

    Time Temperature Precipitation Wind Pressure Humidity
    00:00 -1°C° 0 mm 2 mps 762 mmHg 53%
    01:00 -1°C° 0 mm 2 mps 762 mmHg 54%
    02:00 -1°C° 0 mm 2 mps 761 mmHg 55%
    03:00 -1°C° 0 mm 2 mps 761 mmHg 56%
    04:00 -1°C° 0 mm 2 mps 761 mmHg 57%
    05:00 -2°C° 0 mm 2 mps 761 mmHg 58%
    06:00 -1°C° 0 mm 2 mps 761 mmHg 56%
    07:00 -1°C° 0 mm 2 mps 761 mmHg 54%
    08:00 +1°C° 0 mm 2 mps 761 mmHg 51%
    09:00 +2°C° 0 mm 2 mps 761 mmHg 46%
    10:00 +4°C° 0 mm 2 mps 760 mmHg 40%
    11:00 +5°C° 0 mm 2 mps 760 mmHg 34%
    12:00 +5°C° 0 mm 3 mps 760 mmHg 31%
    13:00 +5°C° 0 mm 3 mps 760 mmHg 28%
    14:00 +7°C° 0 mm 3 mps 760 mmHg 25%
    15:00 +5°C° 0 mm 2 mps 760 mmHg 27%
    16:00 +4°C° 0 mm 2 mps 760 mmHg 29%
    17:00 +4°C° 0 mm 1 mps 760 mmHg 31%
    18:00 +2°C° 0 mm 2 mps 761 mmHg 34%
    19:00 +2°C° 0 mm 2 mps 761 mmHg 36%
    20:00 +1°C° 0 mm 2 mps 761 mmHg 39%
    21:00 -1°C° 0 mm 2 mps 762 mmHg 40%
    22:00 -1°C° 0 mm 2 mps 762 mmHg 42%
    23:00 -2°C° 0 mm 2 mps 763 mmHg 43%

    Tomorrow, 19 November, Monday

    Time Temperature Precipitation Wind Pressure Humidity
    00:00 -2°C° 0 mm 2 mps 763 mmHg 43%
    01:00 0°C° 0 mm 1 mps 764 mmHg 43%
    02:00 0°C° 0 mm 1 mps 764 mmHg 42%
    03:00 -1°C° 0 mm 1 mps 764 mmHg 42%
    04:00 -1°C° 0 mm 1 mps 764 mmHg 42%
    05:00 -1°C° 0 mm 1 mps 764 mmHg 42%
    06:00 -1°C° 0 mm 1 mps 764 mmHg 41%
    07:00 0°C° 0 mm 1 mps 764 mmHg 39%
    08:00 0°C° 0 mm 1 mps 765 mmHg 38%
    09:00 +1°C° 0 mm 1 mps 765 mmHg 35%
    10:00 +1°C° 0 mm 0 mps 765 mmHg 33%
    11:00 +2°C° 0 mm 0 mps 765 mmHg 30%
    12:00 +4°C° 0 mm 1 mps 764 mmHg 30%
    13:00 +4°C° 0 mm 1 mps 764 mmHg 30%
    14:00 +3°C° 0 mm 2 mps 763 mmHg 30%
    15:00 +4°C° 0 mm 1 mps 763 mmHg 33%
    16:00 +3°C° 0 mm 1 mps 763 mmHg 36%
    17:00 +2°C° 0 mm 1 mps 763 mmHg 40%
    18:00 +2°C° 0 mm 1 mps 763 mmHg 41%
    19:00 -1°C° 0 mm 2 mps 763 mmHg 42%
    20:00 -1°C° 0 mm 2 mps 763 mmHg 43%
    21:00 -1°C° 0 mm 2 mps 763 mmHg 43%
    22:00 -1°C° 0 mm 3 mps 763 mmHg 43%
    23:00 -1°C° 0 mm 3 mps 762 mmHg 43%

    Day after tomorrow, 20 November, Tuesday

    Time Temperature Precipitation Wind Pressure Humidity
    00:00 -1°C° 0 mm 3 mps 762 mmHg 44%
    01:00 0°C° 0 mm 3 mps 762 mmHg 45%
    02:00 0°C° 0 mm 3 mps 761 mmHg 45%
    03:00 +1°C° 0 mm 2 mps 761 mmHg 48%
    04:00 +1°C° 0 mm 2 mps 761 mmHg 51%
    05:00 +1°C° 0 mm 2 mps 760 mmHg 54%
    06:00 +1°C° 0 mm 2 mps 761 mmHg 53%
    07:00 0°C° 0 mm 3 mps 762 mmHg 52%
    08:00 -1°C° 0 mm 4 mps 762 mmHg 51%
    09:00 -1°C° 0 mm 4 mps 763 mmHg 48%
    10:00 -1°C° 0 mm 5 mps 764 mmHg 45%
    11:00 -2°C° 0 mm 6 mps 764 mmHg 43%
    12:00 -2°C° 0 mm 6 mps 764 mmHg 39%
    13:00 -1°C° 0 mm 5 mps 764 mmHg 35%
    14:00 -1°C° 0 mm 5 mps 765 mmHg 31%
    15:00 -2°C° 0 mm 5 mps 765 mmHg 31%
    16:00 -3°C° 0 mm 4 mps 766 mmHg 30%
    17:00 -4°C° 0 mm 3 mps 766 mmHg 30%
    18:00 -5°C° 0 mm 3 mps 767 mmHg 30%
    19:00 -5°C° 0 mm 3 mps 767 mmHg 30%
    20:00 -4°C° 0 mm 2 mps 768 mmHg 30%
    21:00 -4°C° 0 mm 2 mps 768 mmHg 29%
    22:00 -5°C° 0 mm 2 mps 768 mmHg 29%
    23:00 -3°C° 0 mm 1 mps 769 mmHg 29%

    21 November, Wednesday

    Time Temperature Precipitation Wind Pressure Humidity
    00:00 -3°C° 0 mm 1 mps 769 mmHg 28%
    01:00 -3°C° 0 mm 1 mps 768 mmHg 28%
    02:00 -4°C° 0 mm 0 mps 768 mmHg 28%
    03:00 -4°C° 0 mm 0 mps 768 mmHg 28%
    04:00 -4°C° 0 mm 1 mps 768 mmHg 28%
    05:00 -4°C° 0 mm 1 mps 768 mmHg 28%
    06:00 -3°C° 0 mm 1 mps 768 mmHg 27%
    07:00 -3°C° 0 mm 1 mps 768 mmHg 26%
    08:00 -3°C° 0 mm 1 mps 768 mmHg 25%
    09:00 -4°C° 0 mm 2 mps 768 mmHg 24%
    10:00 -3°C° 0 mm 2 mps 767 mmHg 22%
    11:00 -1°C° 0 mm 3 mps 767 mmHg 20%
    12:00 -1°C° 0 mm 3 mps 766 mmHg 20%
    13:00 -1°C° 0 mm 4 mps 765 mmHg 20%
    14:00 -1°C° 0 mm 4 mps 765 mmHg 20%
    15:00 -2°C° 0 mm 4 mps 764 mmHg 23%
    16:00 -2°C° 0 mm 3 mps 764 mmHg 27%
    17:00 -4°C° 0 mm 3 mps 764 mmHg 30%
    18:00 -4°C° 0 mm 3 mps 764 mmHg 33%
    19:00 -4°C° 0 mm 3 mps 764 mmHg 36%
    20:00 -4°C° 0 mm 4 mps 764 mmHg 39%
    21:00 -4°C° 0 mm 3 mps 764 mmHg 43%
    22:00 -4°C° 0 mm 3 mps 764 mmHg 48%
    23:00 -4°C° 0 mm 3 mps 764 mmHg 52%

    22 November, Thursday

    Time Temperature Precipitation Wind Pressure Humidity
    00:00 -4°C° 0 mm 3 mps 764 mmHg 49%
    01:00 -5°C° 0 mm 3 mps 764 mmHg 46%
    02:00 -4°C° 0 mm 2 mps 764 mmHg 43%
    03:00 -5°C° 0 mm 3 mps 764 mmHg 40%
    04:00 -5°C° 0 mm 4 mps 765 mmHg 38%
    05:00 -5°C° 0 mm 4 mps 765 mmHg 35%
    06:00 -7°C° 0 mm 5 mps 766 mmHg 33%
    07:00 -7°C° 0 mm 5 mps 767 mmHg 31%
    08:00 -7°C° 0 mm 5 mps 768 mmHg 29%
    09:00 -7°C° 0 mm 5 mps 768 mmHg 26%
    10:00 -6°C° 0 mm 5 mps 768 mmHg 24%
    11:00 -6°C° 0 mm 5 mps 769 mmHg 22%
    12:00 -6°C° 0 mm 5 mps 768 mmHg 22%
    13:00 -5°C° 0 mm 4 mps 768 mmHg 22%
    14:00 -4°C° 0 mm 4 mps 768 mmHg 22%
    15:00 -5°C° 0 mm 3 mps 768 mmHg 24%
    16:00 -6°C° 0 mm 3 mps 768 mmHg 26%
    17:00 -5°C° 0 mm 2 mps 768 mmHg 28%
    18:00 -4°C° 0 mm 1 mps 768 mmHg 28%
    19:00 -4°C° 0 mm 1 mps 769 mmHg 28%
    20:00 -4°C° 0 mm 1 mps 769 mmHg 28%
    21:00 -4°C° 0 mm 1 mps 769 mmHg 28%
    22:00 -4°C° 0 mm 1 mps 768 mmHg 28%
    23:00 -4°C° 0 mm 1 mps 768 mmHg 28%

    23 November, Friday

    Time Temperature Precipitation Wind Pressure Humidity
    00:00 -4°C° 0 mm 1 mps 768 mmHg 28%
    01:00 -6°C° 0 mm 1 mps 768 mmHg 28%
    02:00 -7°C° 0 mm 2 mps 768 mmHg 28%
    03:00 -7°C° 0 mm 2 mps 767 mmHg 28%
    04:00 -7°C° 0 mm 2 mps 767 mmHg 28%
    05:00 -7°C° 0 mm 2 mps 767 mmHg 28%
    06:00 -7°C° 0 mm 2 mps 767 mmHg 26%
    07:00 -6°C° 0 mm 2 mps 766 mmHg 24%
    08:00 -6°C° 0 mm 2 mps 766 mmHg 23%
    09:00 -5°C° 0 mm 3 mps 766 mmHg 23%
    10:00 -2°C° 0 mm 3 mps 765 mmHg 24%
    11:00 -1°C° 0 mm 3 mps 765 mmHg 24%
    12:00 0°C° 0 mm 3 mps 764 mmHg 30%
    13:00 +1°C° 0 mm 3 mps 763 mmHg 35%
    14:00 +1°C° 0 mm 3 mps 763 mmHg 41%
    15:00 +2°C° 0 mm 2 mps 763 mmHg 46%
    16:00 +1°C° 0 mm 2 mps 763 mmHg 51%
    17:00 +2°C° 0 mm 1 mps 763 mmHg 56%
    18:00 +1°C° 0 mm 1 mps 763 mmHg 58%
    19:00 -1°C° 0 mm 2 mps 763 mmHg 60%
    20:00 -1°C° 0 mm 2 mps 763 mmHg 61%
    21:00 +1°C° 0 mm 1 mps 763 mmHg 65%
    22:00 0°C° 0 mm 1 mps 763 mmHg 70%
    23:00 0°C° 0 mm 1 mps 763 mmHg 74%
    Show more